Flag for Taiwan Weather past 2 weeks in Taipei, Taiwan

Now
59 °F

Passing clouds.


Feels Like: 56 °F
Forecast: 57 / 72 °F
Wind: 15 mph from East

Location: Sungshan / Taipei

Current Time: Dec 23, 2014 at 1:51:05 AM

Latest Report: Dec 23, 2014 at 1:00 AM


Visibility: N/A

Pressure: 30.21 "Hg

Humidity: 59%

Dew point: 45 °F

Location of TaipeiLocation

Historic Weather in Taipei — Graph

°F

Taipei temperature yesterday

Maximum temperature yesterday: 59 °F (at 12:30 PM)
Minimum temperature yesterday: 54 °F (at 4:00 AM)
Average temperature yesterday: 56 °F

Past Weeks' High & Low Weather Summary

 TemperatureHumidityPressure
High75 °F (Dec 10, 12:00 PM)94% (Dec 9, 8:30 PM)30.48 "Hg (Dec 9, 8:30 PM)
Low52 °F (Dec 17, 6:30 AM)44% (Dec 17, 2:00 AM)30.01 "Hg (Dec 10, 1:30 PM)
Average61 °F67%30.24 "Hg
* Reported Midnight between Dec 7 and Dec 8 — Midnight between Dec 22 and Dec 23, Taipei, Weather by CustomWeather, © 2014

Note: Actual official high and low records may vary slightly from our data, if they occured in-between our weather recording intervals... More about our weather records

Advertising

Taipei weather history for previous 24 hours

 ConditionsComfort  
Time TempWeatherWind HumidityBarometerVisibility
12:00 AM
Dec 23
57 °FPassing clouds.15 mph59%30.24 "HgN/A
11:30 PM
Dec 22
57 °FPassing clouds.15 mph59%30.24 "HgN/A
11:00 PM57 °FPassing clouds.17 mph59%30.24 "HgN/A
10:30 PM57 °FPassing clouds.18 mph59%30.27 "HgN/A
10:00 PM57 °FPassing clouds.15 mph55%30.27 "HgN/A
9:30 PM55 °FPassing clouds.16 mph59%30.27 "HgN/A
9:00 PM57 °FPassing clouds.16 mph55%30.27 "HgN/A
8:30 PM57 °FPassing clouds.17 mph55%30.27 "HgN/A
8:00 PM55 °FPassing clouds.15 mph59%30.27 "HgN/A
7:30 PM55 °FPassing clouds.15 mph59%30.27 "HgN/A
7:00 PM55 °FPassing clouds.17 mph59%30.27 "HgN/A
6:30 PM57 °FPassing clouds.16 mph55%30.30 "HgN/A
6:00 PM57 °FPassing clouds.18 mph55%30.30 "HgN/A
5:30 PM57 °FPartly cloudy.18 mph55%30.30 "HgN/A
5:00 PM57 °FBroken clouds.15 mph55%30.30 "HgN/A
4:55 PM57 °FBroken clouds.15 mph55%30.30 "HgN/A
4:30 PM57 °FBroken clouds.17 mph51%30.27 "HgN/A
4:00 PM57 °FBroken clouds.16 mph51%30.27 "HgN/A
3:30 PM59 °FBroken clouds.17 mph48%30.27 "HgN/A
3:00 PM59 °FBroken clouds.16 mph51%30.27 "HgN/A
2:30 PM59 °FPartly sunny.16 mph48%30.30 "HgN/A
2:00 PM59 °FBroken clouds.17 mph48%30.30 "HgN/A
1:30 PM59 °FPartly sunny.16 mph45%30.30 "HgN/A
1:00 PM57 °FPartly sunny.15 mph51%30.30 "HgN/A
12:30 PM59 °FBroken clouds.17 mph48%30.33 "HgN/A
11:30 AM55 °FPartly sunny.16 mph51%30.36 "HgN/A
11:00 AM55 °FPartly sunny.16 mph51%30.36 "HgN/A
10:30 AM55 °FPartly sunny.14 mph51%30.39 "HgN/A
10:00 AM55 °FScattered clouds.13 mph51%30.39 "HgN/A
9:30 AM55 °FScattered clouds.12 mph51%30.39 "HgN/A
9:00 AM55 °FBroken clouds.12 mph51%30.39 "HgN/A
8:30 AM54 °FPartly sunny.12 mph51%30.39 "HgN/A
8:00 AM54 °FPartly sunny.10 mph51%30.39 "HgN/A
7:30 AM54 °FPartly sunny.12 mph51%30.39 "HgN/A
7:00 AM54 °FPartly sunny.13 mph51%30.36 "HgN/A
6:30 AM54 °FPassing clouds.12 mph51%30.36 "HgN/A
6:00 AM54 °FPassing clouds.12 mph54%30.36 "HgN/A
5:00 AM54 °FPassing clouds.8 mph54%30.33 "HgN/A
4:00 AM54 °FPassing clouds.8 mph58%30.33 "HgN/A
3:00 AM55 °FPassing clouds.6 mph59%30.33 "HgN/A
2:00 AM55 °FPassing clouds.8 mph59%30.33 "HgN/A
1:00 AM55 °FPassing clouds.9 mph59%30.33 "HgN/A
Weather by CustomWeather, © 2014

See weather overviewHow to use our weather pages